EJU7695 LPPT-GVAC

Flight info

Callsign EJU7695
Flight time N/A
Altitude 37000
Route ULVOT DCT BEXAL DCT SAMAR N873 IPERA DCT DIMKI DIMKI1S
Aircraft A20N/M-SDE2E3FGHIJ1RWXYZ/LB1G1

Departure

Time N/A
Airport Lisbon Humberto Delgado Airport (LPPT)

Arrival

Time 2026-05-07 06:42
Airport Amílcar Cabral International Airport (GVAC)
Time Latitude Longitude Altitude Speed Heading
2026-05-07 04:28 29.56196 -14.90328 37003 ft 433 kts 193°
2026-05-07 04:28 29.53321 -14.91361 37002 ft 433 kts 193°
2026-05-07 04:29 29.47549 -14.93432 37003 ft 433 kts 194°
2026-05-07 04:29 29.41853 -14.95475 37003 ft 433 kts 194°
2026-05-07 04:30 29.36090 -14.97538 37003 ft 433 kts 194°
2026-05-07 04:30 29.30398 -14.99575 37002 ft 432 kts 193°
2026-05-07 04:31 29.24662 -15.01624 37002 ft 433 kts 193°
2026-05-07 04:31 29.18924 -15.03673 37003 ft 433 kts 193°
2026-05-07 04:32 29.13181 -15.05720 37003 ft 433 kts 194°
2026-05-07 04:32 29.07460 -15.07757 37003 ft 433 kts 193°
2026-05-07 04:33 29.01732 -15.09794 37002 ft 433 kts 194°
2026-05-07 04:33 28.95989 -15.11834 37002 ft 433 kts 194°
2026-05-07 04:34 28.90259 -15.13867 37003 ft 433 kts 194°
2026-05-07 04:34 28.84546 -15.15892 37003 ft 432 kts 193°
2026-05-07 04:35 28.78815 -15.17920 37002 ft 432 kts 194°
2026-05-07 04:35 28.73097 -15.19942 37002 ft 432 kts 194°
2026-05-07 04:36 28.67346 -15.21974 37003 ft 433 kts 194°
2026-05-07 04:36 28.61610 -15.23997 37003 ft 433 kts 194°
2026-05-07 04:37 28.55861 -15.26023 37003 ft 433 kts 194°
2026-05-07 04:37 28.50137 -15.28037 37002 ft 433 kts 194°
2026-05-07 04:38 28.44404 -15.30053 37003 ft 433 kts 194°
2026-05-07 04:38 28.38637 -15.32078 37003 ft 433 kts 194°
2026-05-07 04:39 28.32906 -15.34088 36997 ft 434 kts 195°
2026-05-07 04:39 28.27089 -15.36116 36993 ft 444 kts 195°
2026-05-07 04:40 28.21138 -15.38205 37003 ft 453 kts 195°
2026-05-07 04:40 28.15062 -15.40330 37005 ft 462 kts 195°
2026-05-07 04:41 28.09045 -15.42806 37004 ft 466 kts 202°
2026-05-07 04:41 28.03277 -15.46149 37003 ft 468 kts 210°
2026-05-07 04:42 27.97825 -15.50128 37003 ft 468 kts 213°
2026-05-07 04:42 27.92380 -15.54175 37004 ft 469 kts 212°
2026-05-07 04:43 27.86932 -15.58191 37002 ft 469 kts 212°
2026-05-07 04:43 27.81453 -15.62211 37002 ft 469 kts 212°
2026-05-07 04:44 27.76010 -15.66201 37001 ft 469 kts 212°
2026-05-07 04:44 27.70565 -15.70188 37002 ft 469 kts 212°
2026-05-07 04:45 27.65068 -15.74209 37003 ft 470 kts 212°
2026-05-07 04:45 27.59604 -15.78201 37003 ft 470 kts 212°
2026-05-07 04:46 27.54126 -15.82197 37003 ft 470 kts 212°
2026-05-07 04:46 27.48684 -15.86162 37003 ft 470 kts 212°
2026-05-07 04:47 27.43182 -15.90165 37003 ft 470 kts 212°
2026-05-07 04:47 27.37719 -15.94137 37003 ft 470 kts 212°
2026-05-07 04:48 27.32240 -15.98115 37003 ft 470 kts 212°
2026-05-07 04:48 27.26776 -16.02077 37003 ft 470 kts 212°
2026-05-07 04:49 27.21281 -16.06057 37002 ft 471 kts 212°
2026-05-07 04:49 27.15808 -16.10016 37003 ft 471 kts 212°
2026-05-07 04:50 27.10318 -16.13982 37003 ft 470 kts 212°
2026-05-07 04:50 27.04816 -16.17954 37003 ft 471 kts 212°
2026-05-07 04:51 26.99320 -16.21914 37003 ft 471 kts 212°
2026-05-07 04:51 26.93833 -16.25863 37003 ft 471 kts 212°
2026-05-07 04:52 26.88320 -16.29828 37001 ft 472 kts 212°
2026-05-07 04:52 26.82818 -16.33774 37003 ft 471 kts 212°
2026-05-07 04:53 26.77333 -16.37701 37002 ft 472 kts 212°
2026-05-07 04:53 26.71814 -16.41649 37003 ft 471 kts 212°
2026-05-07 04:54 26.66318 -16.45575 37003 ft 471 kts 212°
2026-05-07 04:54 26.60927 -16.49411 37007 ft 445 kts 213°
2026-05-07 04:55 26.55760 -16.53097 37003 ft 440 kts 213°
2026-05-07 04:55 26.50611 -16.56765 37003 ft 440 kts 213°
2026-05-07 04:56 26.45474 -16.60420 37003 ft 440 kts 213°
2026-05-07 04:56 26.40322 -16.64080 37003 ft 440 kts 213°
2026-05-07 04:57 26.35188 -16.67723 37003 ft 440 kts 212°
2026-05-07 04:57 26.30006 -16.71397 37003 ft 440 kts 212°
2026-05-07 04:58 26.24886 -16.75022 37003 ft 440 kts 212°
2026-05-07 04:58 26.19740 -16.78663 37003 ft 440 kts 212°
2026-05-07 04:59 26.14593 -16.82309 37003 ft 440 kts 212°
2026-05-07 04:59 26.09436 -16.85962 37003 ft 440 kts 212°
2026-05-07 05:00 26.04268 -16.89617 37003 ft 440 kts 212°
2026-05-07 05:00 25.99133 -16.93246 37003 ft 440 kts 212°
2026-05-07 05:01 25.93972 -16.96889 37003 ft 440 kts 212°
2026-05-07 05:01 25.88831 -17.00513 37002 ft 440 kts 212°
2026-05-07 05:02 25.83669 -17.04148 37003 ft 440 kts 212°
2026-05-07 05:02 25.78536 -17.07760 37003 ft 440 kts 212°
2026-05-07 05:03 25.73387 -17.11379 37003 ft 440 kts 212°
2026-05-07 05:03 25.68205 -17.15017 37003 ft 440 kts 212°
2026-05-07 05:04 25.63047 -17.18635 37003 ft 440 kts 212°
2026-05-07 05:04 25.57894 -17.22245 37003 ft 440 kts 212°
2026-05-07 05:05 25.52760 -17.25838 37003 ft 440 kts 212°
2026-05-07 05:05 25.47588 -17.29454 37003 ft 440 kts 212°
2026-05-07 05:06 25.42454 -17.33040 37003 ft 440 kts 212°
2026-05-07 05:06 25.37267 -17.36660 37003 ft 440 kts 212°
2026-05-07 05:07 25.32115 -17.40251 37003 ft 440 kts 212°
2026-05-07 05:07 25.26941 -17.43854 37003 ft 440 kts 212°
2026-05-07 05:08 25.21783 -17.47442 37003 ft 440 kts 212°
2026-05-07 05:08 25.16617 -17.51031 37003 ft 440 kts 212°
2026-05-07 05:09 25.11443 -17.54623 37003 ft 440 kts 212°
2026-05-07 05:09 25.06208 -17.58235 36983 ft 448 kts 214°
2026-05-07 05:10 25.00913 -17.61921 36984 ft 458 kts 214°
2026-05-07 05:10 24.95441 -17.65711 36980 ft 468 kts 214°
2026-05-07 05:11 24.89941 -17.69509 36976 ft 472 kts 214°
2026-05-07 05:11 24.84374 -17.73347 36974 ft 472 kts 214°
2026-05-07 05:12 24.78844 -17.77156 36975 ft 472 kts 214°
2026-05-07 05:12 24.73289 -17.80979 36975 ft 472 kts 214°
2026-05-07 05:13 24.67741 -17.84794 36974 ft 472 kts 214°
2026-05-07 05:13 24.62191 -17.88605 36975 ft 472 kts 214°
2026-05-07 05:14 24.56649 -17.92408 36975 ft 472 kts 214°
2026-05-07 05:14 24.51082 -17.96223 36975 ft 472 kts 214°
2026-05-07 05:15 24.45536 -18.00020 36975 ft 472 kts 214°
2026-05-07 05:15 24.40001 -18.03805 36975 ft 472 kts 214°
2026-05-07 05:16 24.34461 -18.07590 36975 ft 472 kts 214°
2026-05-07 05:16 24.28907 -18.11381 36975 ft 472 kts 214°
2026-05-07 05:17 24.23355 -18.15166 36975 ft 472 kts 214°
2026-05-07 05:17 24.17800 -18.18950 36975 ft 472 kts 214°
2026-05-07 05:18 24.12244 -18.22729 36975 ft 472 kts 214°
2026-05-07 05:18 24.06674 -18.26515 36975 ft 472 kts 214°
2026-05-07 05:19 24.01126 -18.30280 36975 ft 471 kts 214°
2026-05-07 05:19 23.95573 -18.34047 36975 ft 471 kts 214°
2026-05-07 05:20 23.90020 -18.37809 36975 ft 471 kts 214°
2026-05-07 05:20 23.84470 -18.41566 36974 ft 471 kts 214°
2026-05-07 05:21 23.76134 -18.47200 36974 ft 471 kts 214°
2026-05-07 05:22 23.70559 -18.50964 36974 ft 471 kts 214°
2026-05-07 05:22 23.65007 -18.54708 36974 ft 471 kts 214°
2026-05-07 05:23 23.59452 -18.58451 36974 ft 471 kts 214°
2026-05-07 05:23 23.53886 -18.62197 36974 ft 471 kts 214°
2026-05-07 05:24 23.48311 -18.65947 36974 ft 471 kts 213°
2026-05-07 05:24 23.42752 -18.69678 36984 ft 471 kts 214°
2026-05-07 05:24 23.39998 -18.71510 36980 ft 459 kts 215°
2026-05-07 05:25 23.37301 -18.73318 36977 ft 455 kts 215°
2026-05-07 05:25 23.31937 -18.76927 36975 ft 454 kts 215°
2026-05-07 05:26 23.26569 -18.80529 36974 ft 454 kts 215°
2026-05-07 05:26 23.21208 -18.84119 36974 ft 454 kts 215°
2026-05-07 05:27 23.15856 -18.87697 36974 ft 454 kts 215°
2026-05-07 05:27 23.10501 -18.91274 36974 ft 454 kts 215°
2026-05-07 05:28 23.05143 -18.94849 36974 ft 454 kts 215°
2026-05-07 05:28 22.99770 -18.98431 36974 ft 454 kts 215°
2026-05-07 05:29 22.94399 -19.02008 36974 ft 454 kts 215°
2026-05-07 05:29 22.89029 -19.05580 36973 ft 454 kts 215°
2026-05-07 05:30 22.83667 -19.09145 36974 ft 454 kts 215°
2026-05-07 05:30 22.78304 -19.12706 36974 ft 454 kts 215°
2026-05-07 05:31 22.72943 -19.16263 36974 ft 454 kts 215°
2026-05-07 05:31 22.67582 -19.19816 36974 ft 454 kts 215°
2026-05-07 05:32 22.62212 -19.23372 36974 ft 454 kts 215°
2026-05-07 05:32 22.56846 -19.26923 36974 ft 454 kts 215°
2026-05-07 05:33 22.51465 -19.30480 36974 ft 454 kts 215°
2026-05-07 05:33 22.46111 -19.34015 36974 ft 454 kts 215°
2026-05-07 05:34 22.40723 -19.37570 36975 ft 454 kts 215°
2026-05-07 05:34 22.35348 -19.41113 36975 ft 454 kts 215°
2026-05-07 05:35 22.30002 -19.44634 36975 ft 454 kts 215°
2026-05-07 05:35 22.24605 -19.48184 36975 ft 454 kts 215°
2026-05-07 05:36 22.19226 -19.51720 36975 ft 454 kts 215°
2026-05-07 05:36 22.13887 -19.55226 36975 ft 454 kts 215°
2026-05-07 05:37 22.08491 -19.58766 36975 ft 454 kts 215°
2026-05-07 05:37 22.03124 -19.62287 36975 ft 454 kts 215°
2026-05-07 05:38 21.97743 -19.65813 36975 ft 455 kts 215°
2026-05-07 05:38 21.92340 -19.69349 36974 ft 455 kts 215°
2026-05-07 05:39 21.86974 -19.72856 36973 ft 455 kts 215°
2026-05-07 05:39 21.81575 -19.76383 36974 ft 455 kts 215°
2026-05-07 05:40 21.76189 -19.79885 36975 ft 451 kts 216°
2026-05-07 05:40 21.70875 -19.83354 36975 ft 450 kts 216°
2026-05-07 05:41 21.65529 -19.86839 36974 ft 450 kts 216°
2026-05-07 05:41 21.60186 -19.90319 36974 ft 450 kts 216°
2026-05-07 05:42 21.54866 -19.93779 36974 ft 450 kts 216°
2026-05-07 05:42 21.49511 -19.97258 36974 ft 450 kts 216°
2026-05-07 05:43 21.44158 -20.00734 36974 ft 450 kts 216°
2026-05-07 05:43 21.38838 -20.04185 36974 ft 450 kts 216°
2026-05-07 05:44 21.33506 -20.07641 36974 ft 450 kts 216°
2026-05-07 05:44 21.28156 -20.11106 36974 ft 450 kts 216°
2026-05-07 05:45 21.22805 -20.14567 36974 ft 450 kts 216°
2026-05-07 05:45 21.17473 -20.18014 36975 ft 450 kts 216°
2026-05-07 05:46 21.12132 -20.21464 36975 ft 450 kts 216°
2026-05-07 05:46 21.06793 -20.24909 36975 ft 450 kts 216°
2026-05-07 05:47 21.01458 -20.28348 36975 ft 450 kts 216°
2026-05-07 05:47 20.96089 -20.31808 36975 ft 450 kts 216°
2026-05-07 05:48 20.90756 -20.35240 36975 ft 450 kts 216°
2026-05-07 05:48 20.85396 -20.38686 36974 ft 450 kts 216°
2026-05-07 05:49 20.80049 -20.42122 36974 ft 450 kts 216°
2026-05-07 05:49 20.74711 -20.45549 36974 ft 450 kts 216°
2026-05-07 05:50 20.69372 -20.48974 36974 ft 450 kts 216°
2026-05-07 05:50 20.64031 -20.52398 36974 ft 450 kts 216°
2026-05-07 05:51 20.58677 -20.55826 36974 ft 450 kts 216°
2026-05-07 05:51 20.53337 -20.59243 36974 ft 450 kts 216°
2026-05-07 05:52 20.47994 -20.62659 36974 ft 450 kts 216°
2026-05-07 05:52 20.42668 -20.66061 36975 ft 450 kts 216°
2026-05-07 05:53 20.37320 -20.69474 36975 ft 450 kts 216°
2026-05-07 05:53 20.31945 -20.72898 36974 ft 450 kts 215°
2026-05-07 05:54 20.26580 -20.76310 36974 ft 450 kts 215°
2026-05-07 05:54 20.21260 -20.79690 36974 ft 450 kts 215°
2026-05-07 05:55 20.15984 -20.83017 36977 ft 427 kts 217°
2026-05-07 05:55 20.10948 -20.86217 36975 ft 422 kts 217°
2026-05-07 05:56 20.05916 -20.89418 36974 ft 422 kts 217°
2026-05-07 05:56 20.00904 -20.92597 36974 ft 422 kts 217°
2026-05-07 05:57 19.95858 -20.95792 36974 ft 422 kts 217°
2026-05-07 05:57 19.90856 -20.98956 36974 ft 422 kts 217°
2026-05-07 05:58 19.85800 -21.02152 36974 ft 422 kts 217°
2026-05-07 05:58 19.80787 -21.05317 36974 ft 422 kts 217°
2026-05-07 05:59 19.75742 -21.08500 36974 ft 422 kts 217°
2026-05-07 05:59 19.70726 -21.11663 36974 ft 422 kts 217°
2026-05-07 06:00 19.65708 -21.14825 36974 ft 422 kts 217°
2026-05-07 06:00 19.60664 -21.18000 36974 ft 422 kts 217°
2026-05-07 06:01 19.55639 -21.21162 36974 ft 422 kts 217°
2026-05-07 06:01 19.50618 -21.24319 36974 ft 422 kts 217°
2026-05-07 06:02 19.45594 -21.27475 36974 ft 422 kts 217°
2026-05-07 06:02 19.40556 -21.30637 36974 ft 422 kts 217°
2026-05-07 06:03 19.35503 -21.33807 36974 ft 422 kts 217°
2026-05-07 06:03 19.30495 -21.36947 36974 ft 421 kts 217°
2026-05-07 06:04 19.25442 -21.40112 36974 ft 421 kts 217°
2026-05-07 06:04 19.20435 -21.43246 36974 ft 421 kts 217°
2026-05-07 06:05 19.15393 -21.46400 36974 ft 421 kts 217°
2026-05-07 06:05 19.10370 -21.49540 36974 ft 421 kts 217°
2026-05-07 06:06 19.05343 -21.52680 36974 ft 421 kts 217°
2026-05-07 06:06 19.00301 -21.55827 36975 ft 421 kts 217°
2026-05-07 06:07 18.95275 -21.58961 36975 ft 421 kts 217°
2026-05-07 06:07 18.90259 -21.62088 36975 ft 421 kts 217°
2026-05-07 06:08 18.85216 -21.65228 36975 ft 421 kts 217°
2026-05-07 06:08 18.80185 -21.68359 36975 ft 421 kts 217°
2026-05-07 06:09 18.75144 -21.71495 36974 ft 421 kts 217°
2026-05-07 06:09 18.70119 -21.74618 36974 ft 421 kts 217°
2026-05-07 06:10 18.65070 -21.77726 36976 ft 418 kts 219°
2026-05-07 06:10 18.60088 -21.80827 36975 ft 417 kts 220°
2026-05-07 06:11 18.55111 -21.83924 36974 ft 417 kts 220°
2026-05-07 06:11 18.50102 -21.87033 36974 ft 417 kts 219°
2026-05-07 06:12 18.45093 -21.90136 36974 ft 417 kts 219°
2026-05-07 06:12 18.40123 -21.93213 36975 ft 418 kts 219°
2026-05-07 06:13 18.35091 -21.96326 36974 ft 418 kts 219°
2026-05-07 06:13 18.30119 -21.99399 36972 ft 418 kts 219°
2026-05-07 06:13 18.27602 -22.00954 36747 ft 418 kts 219°
2026-05-07 06:14 18.25064 -22.02520 36493 ft 416 kts 219°
2026-05-07 06:14 18.22570 -22.04056 36242 ft 412 kts 220°
2026-05-07 06:14 18.20138 -22.05555 35994 ft 409 kts 220°
2026-05-07 06:14 18.17679 -22.07072 35743 ft 408 kts 220°
2026-05-07 06:15 18.15260 -22.08566 35495 ft 408 kts 220°
2026-05-07 06:15 18.12828 -22.10068 35191 ft 408 kts 220°
2026-05-07 06:15 18.10385 -22.11575 34767 ft 409 kts 220°
2026-05-07 06:15 18.07926 -22.13092 34204 ft 411 kts 220°
2026-05-07 06:16 18.05452 -22.14617 33573 ft 412 kts 219°
2026-05-07 06:16 18.03007 -22.16126 32941 ft 414 kts 219°
2026-05-07 06:16 18.00526 -22.17655 32310 ft 415 kts 219°
2026-05-07 06:16 17.98038 -22.19186 31677 ft 416 kts 218°
2026-05-07 06:17 17.95579 -22.20698 31055 ft 416 kts 218°
2026-05-07 06:17 17.93092 -22.22226 30423 ft 416 kts 218°
2026-05-07 06:17 17.90591 -22.23761 29931 ft 412 kts 218°
2026-05-07 06:17 17.88145 -22.25260 29519 ft 407 kts 218°
2026-05-07 06:18 17.85720 -22.26749 29062 ft 403 kts 218°
2026-05-07 06:18 17.83317 -22.28225 28607 ft 399 kts 217°
2026-05-07 06:18 17.80937 -22.29687 28156 ft 396 kts 217°
2026-05-07 06:18 17.78583 -22.31133 27708 ft 392 kts 217°
2026-05-07 06:19 17.76263 -22.32558 27264 ft 389 kts 217°
2026-05-07 06:19 17.73927 -22.33991 26814 ft 385 kts 217°
2026-05-07 06:19 17.71646 -22.35390 26371 ft 382 kts 217°
2026-05-07 06:19 17.69356 -22.36795 25925 ft 379 kts 217°
2026-05-07 06:20 17.67114 -22.38170 25482 ft 376 kts 216°
2026-05-07 06:20 17.64858 -22.39552 25035 ft 374 kts 216°
2026-05-07 06:20 17.62646 -22.40908 24592 ft 371 kts 216°
2026-05-07 06:20 17.60416 -22.42274 24142 ft 368 kts 216°
2026-05-07 06:21 17.58217 -22.43621 23695 ft 366 kts 216°
2026-05-07 06:21 17.56027 -22.44961 23247 ft 364 kts 216°
2026-05-07 06:21 17.53876 -22.46278 22803 ft 362 kts 215°
2026-05-07 06:21 17.51700 -22.47609 22353 ft 360 kts 215°
2026-05-07 06:22 17.49571 -22.48912 21910 ft 358 kts 215°
2026-05-07 06:22 17.45307 -22.51518 21015 ft 354 kts 214°
2026-05-07 06:22 17.43197 -22.52808 20568 ft 352 kts 214°
2026-05-07 06:23 17.41079 -22.54102 20118 ft 350 kts 214°
2026-05-07 06:23 17.39008 -22.55367 19676 ft 348 kts 214°
2026-05-07 06:23 17.36914 -22.56645 19229 ft 346 kts 214°
2026-05-07 06:23 17.34847 -22.57907 18784 ft 344 kts 213°
2026-05-07 06:24 17.32795 -22.59160 18341 ft 343 kts 213°
2026-05-07 06:24 17.30743 -22.60411 17897 ft 341 kts 213°
2026-05-07 06:24 17.28709 -22.61652 17455 ft 339 kts 213°
2026-05-07 06:24 17.26674 -22.62893 17012 ft 338 kts 213°
2026-05-07 06:25 17.24714 -22.64087 16583 ft 336 kts 213°
2026-05-07 06:25 17.22702 -22.65313 16143 ft 335 kts 212°
2026-05-07 06:25 17.20706 -22.66530 15705 ft 333 kts 212°
2026-05-07 06:25 17.18705 -22.67749 15267 ft 332 kts 212°
2026-05-07 06:26 17.16742 -22.68944 14835 ft 331 kts 212°
2026-05-07 06:26 17.14753 -22.70155 14400 ft 330 kts 211°
2026-05-07 06:26 17.12773 -22.71360 13964 ft 328 kts 211°
2026-05-07 06:26 17.10811 -22.72553 13533 ft 327 kts 211°
2026-05-07 06:27 17.08852 -22.73745 13101 ft 326 kts 211°
2026-05-07 06:27 17.06913 -22.74925 12674 ft 325 kts 211°
2026-05-07 06:27 17.04975 -22.76103 12247 ft 324 kts 211°
2026-05-07 06:27 17.03032 -22.77284 11819 ft 323 kts 211°
2026-05-07 06:28 17.01088 -22.78464 11394 ft 321 kts 211°
2026-05-07 06:28 16.99193 -22.79614 10982 ft 320 kts 211°
2026-05-07 06:28 16.97270 -22.80781 10566 ft 318 kts 211°
2026-05-07 06:28 16.95365 -22.81938 10208 ft 314 kts 211°
2026-05-07 06:29 16.93526 -22.83053 10102 ft 301 kts 211°
2026-05-07 06:29 16.91752 -22.84129 9992 ft 289 kts 211°
2026-05-07 06:29 16.90035 -22.85171 9688 ft 286 kts 211°
2026-05-07 06:29 16.88301 -22.86224 9311 ft 285 kts 211°
2026-05-07 06:30 16.86608 -22.87252 8954 ft 283 kts 211°
2026-05-07 06:30 16.84908 -22.88283 8600 ft 281 kts 211°
2026-05-07 06:30 16.83242 -22.89294 8255 ft 280 kts 211°
2026-05-07 06:30 16.81557 -22.90315 7925 ft 277 kts 211°
2026-05-07 06:31 16.79903 -22.91318 7596 ft 275 kts 211°
2026-05-07 06:31 16.78266 -22.92310 7262 ft 274 kts 211°
2026-05-07 06:31 16.76632 -22.93300 6926 ft 272 kts 211°
2026-05-07 06:31 16.75001 -22.94287 6589 ft 271 kts 211°
2026-05-07 06:32 16.73341 -22.95160 6446 ft 262 kts 205°
2026-05-07 06:32 16.71649 -22.95844 6151 ft 261 kts 201°
2026-05-07 06:32 16.69956 -22.96456 5841 ft 260 kts 200°
2026-05-07 06:32 16.68255 -22.97061 5534 ft 258 kts 200°
2026-05-07 06:33 16.66569 -22.97663 5230 ft 257 kts 200°
2026-05-07 06:33 16.64875 -22.98271 4926 ft 255 kts 200°
2026-05-07 06:33 16.63215 -22.98868 4630 ft 254 kts 200°
2026-05-07 06:33 16.61554 -22.99466 4333 ft 253 kts 200°
2026-05-07 06:34 16.59879 -23.00070 4035 ft 252 kts 200°
2026-05-07 06:34 16.58244 -23.00660 3747 ft 251 kts 200°
2026-05-07 06:34 16.56592 -23.01256 3481 ft 248 kts 200°
2026-05-07 06:34 16.55018 -23.01822 3456 ft 235 kts 200°
2026-05-07 06:35 16.53415 -23.02128 3417 ft 235 kts 176°
2026-05-07 06:35 16.51868 -23.01683 3356 ft 235 kts 149°
2026-05-07 06:35 16.50658 -23.00545 3220 ft 233 kts 121°
2026-05-07 06:35 16.50071 -22.99022 3085 ft 228 kts 95°
2026-05-07 06:36 16.50159 -22.97417 2931 ft 216 kts 70°
2026-05-07 06:36 16.50549 -22.96473 2735 ft 213 kts 54°
2026-05-07 06:36 16.51542 -22.95388 2422 ft 210 kts 29°
2026-05-07 06:36 16.52884 -22.94877 2163 ft 205 kts
2026-05-07 06:37 16.54293 -22.94750 2046 ft 195 kts
2026-05-07 06:37 16.55608 -22.94751 2130 ft 182 kts 359°
2026-05-07 06:37 16.56827 -22.94771 2062 ft 166 kts 359°
2026-05-07 06:37 16.57922 -22.94786 2017 ft 149 kts 359°
2026-05-07 06:38 16.58946 -22.94795 2025 ft 147 kts 359°
2026-05-07 06:38 16.59971 -22.94803 2036 ft 147 kts 359°
2026-05-07 06:38 16.60984 -22.94810 2073 ft 141 kts 359°
2026-05-07 06:38 16.61952 -22.94816 2045 ft 136 kts 359°
2026-05-07 06:39 16.62902 -22.94823 2024 ft 136 kts 359°
2026-05-07 06:39 16.63841 -22.94829 1851 ft 135 kts 359°
2026-05-07 06:39 16.64778 -22.94835 1677 ft 135 kts 360°
2026-05-07 06:39 16.65713 -22.94842 1502 ft 134 kts 360°
2026-05-07 06:40 16.66646 -22.94849 1324 ft 134 kts
2026-05-07 06:40 16.67602 -22.94855 1143 ft 134 kts
2026-05-07 06:40 16.68535 -22.94861 963 ft 134 kts
2026-05-07 06:40 16.69470 -22.94868 782 ft 133 kts
2026-05-07 06:41 16.70403 -22.94874 602 ft 133 kts
2026-05-07 06:41 16.71322 -22.94881 427 ft 133 kts
2026-05-07 06:41 16.72250 -22.94891 269 ft 135 kts
2026-05-07 06:41 16.73155 -22.94889 193 ft 113 kts 358°
2026-05-07 06:42 16.73766 -22.94894 191 ft 64 kts 360°
2026-05-07 06:42 16.74099 -22.94899 188 ft 42 kts 359°
2026-05-07 06:42 16.74229 -22.94864 186 ft 13 kts 63°
2026-05-07 06:42 16.74277 -22.94780 186 ft 13 kts 56°
2026-05-07 06:43 16.74273 -22.94702 184 ft 13 kts 166°
2026-05-07 06:43 16.74179 -22.94697 186 ft 13 kts 179°
2026-05-07 06:43 16.74085 -22.94696 186 ft 14 kts 180°
2026-05-07 06:43 16.73979 -22.94695 186 ft 15 kts 179°
2026-05-07 06:44 16.73873 -22.94695 186 ft 15 kts 180°
2026-05-07 06:44 16.73766 -22.94695 188 ft 14 kts 179°
2026-05-07 06:44 16.73668 -22.94694 189 ft 13 kts 179°
2026-05-07 06:44 16.73608 -22.94627 189 ft 14 kts 124°
2026-05-07 06:45 16.73517 -22.94596 189 ft 14 kts 179°
2026-05-07 06:45 16.73415 -22.94595 189 ft 14 kts 180°
2026-05-07 06:45 16.73361 -22.94529 189 ft 14 kts 90°
2026-05-07 06:45 16.73361 -22.94497 189 ft 0 kts 90°